Flag for Israel Weather past 2 weeks in Tel Aviv, Israel

Now
75 °F

Clear.


Feels Like: 77 °F
Forecast: 62 / 78 °F
Wind: 8 mph from Northeast

Location: Ben Gurion International Airport

Current Time: Mar 6, 2015 at 6:19:49 PM

Latest Report: Mar 6, 2015 at 5:50 PM


Visibility: 10 mi

Pressure: 30.04 "Hg

Humidity: 27%

Dew point: 39 °F

Location of Tel AvivLocation

Historic Weather in Tel Aviv — Graph

°F

Tel Aviv temperature yesterday

Maximum temperature yesterday: 70 °F (at 12:50 PM)
Minimum temperature yesterday: 50 °F (at 4:50 AM)
Average temperature yesterday: 60 °F

Past Weeks' High & Low Weather Summary

 TemperatureHumidityPressure
High86 °F (Feb 27, 1:50 PM)94% (Feb 25, 3:20 AM)30.21 "Hg (Feb 25, 3:20 AM)
Low41 °F (Feb 19, 11:20 PM)19% (Feb 27, 11:50 AM)29.71 "Hg (Feb 20, 4:50 AM)
Average59 °F65%30.03 "Hg
* Reported Feb 19 5:20 PM — Mar 6 5:20 PM, Tel Aviv, Weather by CustomWeather, © 2015

Note: Actual official high and low records may vary slightly from our data, if they occured in-between our weather recording intervals... More about our weather records

Advertising

Tel Aviv weather history for previous 24 hours

 ConditionsComfort  
Time TempWeatherWind HumidityBarometerVisibility
5:20 PM
Fri, Mar 6
79 °FSunny.9 mph26%30.01 "Hg10 mi
4:50 PM81 °FSunny.10 mph23%30.01 "Hg10 mi
4:20 PM81 °FSunny.13 mph23%30.01 "Hg10 mi
3:50 PM81 °FSunny.13 mph23%30.04 "Hg10 mi
3:20 PM81 °FSunny.16 mph21%30.04 "Hg10 mi
2:50 PM81 °FSunny.14 mph21%30.04 "Hg10 mi
2:20 PM79 °FSunny.15 mph24%30.07 "Hg10 mi
1:50 PM79 °FSunny.21 mph24%30.07 "Hg10 mi
1:20 PM77 °FSunny.22 mph26%30.09 "Hg10 mi
12:50 PM77 °FSunny.22 mph26%30.09 "Hg10 mi
12:20 PM75 °FSunny.21 mph27%30.09 "Hg10 mi
11:50 AM75 °FSunny.24 mph27%30.09 "Hg10 mi
11:20 AM73 °FSunny.23 mph29%30.12 "Hg10 mi
10:50 AM73 °FSunny.23 mph29%30.12 "Hg10 mi
10:20 AM73 °FSunny.24 mph29%30.12 "Hg10 mi
9:50 AM73 °FSunny.21 mph29%30.12 "Hg10 mi
9:20 AM72 °FSunny.18 mph31%30.12 "Hg10 mi
8:50 AM70 °FSunny.16 mph35%30.12 "Hg10 mi
8:20 AM70 °FSunny.15 mph33%30.12 "Hg10 mi
7:50 AM68 °FSunny.12 mph35%30.12 "Hg10 mi
7:20 AM64 °FSunny.8 mph43%30.12 "Hg10 mi
6:50 AM63 °FSunny.5 mph42%30.09 "Hg10 mi
6:20 AM61 °FSunny.2 mph45%30.09 "Hg10 mi
5:50 AM59 °FClear.3 mph48%30.09 "Hg10 mi
5:20 AM55 °FClear.7 mph59%30.09 "Hg10 mi
4:50 AM54 °FClear.2 mph67%30.09 "Hg10 mi
4:20 AM52 °FClear.2 mph72%30.09 "Hg10 mi
3:50 AM55 °FClear.1 mph63%30.09 "Hg10 mi
3:20 AM57 °FClear.3 mph59%30.09 "Hg10 mi
2:50 AM57 °FClear.3 mph59%30.09 "Hg10 mi
2:20 AM57 °FClear.6 mph63%30.09 "Hg10 mi
1:50 AM59 °FClear.9 mph59%30.09 "Hg10 mi
1:20 AM57 °FClear.10 mph67%30.09 "Hg10 mi
12:50 AM57 °FClear.13 mph67%30.09 "Hg10 mi
12:20 AM57 °FClear.10 mph72%30.09 "Hg10 mi
11:50 PM
Thu, Mar 5
57 °FClear.12 mph72%30.12 "Hg10 mi
11:20 PM57 °FClear.9 mph72%30.12 "Hg10 mi
10:50 PM57 °FClear.9 mph72%30.12 "Hg10 mi
10:20 PM57 °FClear.8 mph72%30.12 "Hg10 mi
9:50 PM59 °FClear.7 mph68%30.12 "Hg10 mi
9:20 PM59 °FClear.12 mph68%30.12 "Hg10 mi
8:50 PM59 °FClear.13 mph68%30.12 "Hg10 mi
8:20 PM59 °FClear.13 mph68%30.12 "Hg10 mi
7:50 PM61 °FClear.12 mph63%30.12 "Hg10 mi
7:20 PM61 °FClear.10 mph63%30.12 "Hg10 mi
6:50 PM63 °FClear.9 mph59%30.09 "Hg10 mi
6:20 PM63 °FClear.10 mph64%30.09 "Hg10 mi
Weather by CustomWeather, © 2015

See weather overviewHow to use our weather pages